{"data":{"norad_id":62994,"epoch":"2026-09-21T00:25:31.758816Z","epoch_age_seconds":120427,"freshness":"FRESH","line1":"1 62994U 25031P   26264.01772869  .00011690  00000+0  43335-3 0  9998","line2":"2 62994  43.0037 120.6129 0002849 284.9498  75.1038 15.27602213 90964","mean_motion":15.27602213,"eccentricity":0.0002849,"inclination_deg":43.0037,"raan_deg":120.6129,"arg_perigee_deg":284.9498,"mean_anomaly_deg":75.1038,"bstar":0.00043335,"rev_number":9096,"period_min":94.265377972453,"perigee_km":481.02785016332,"apogee_km":484.93731610179,"semimajor_km":6861.1195831326,"source":"CELESTRAK","updated_at":"2026-09-22T09:00:49.719192Z"}}